Temperature
10 9 9 9 8 7 7 6 6 5 5 4 3 3 2 2 1 1 -0 -1 -1 -2 -2 -3 -4 -4 -4 -5 -5 -6 -7 -7 -7 -7 -7 -7 -7 -7 -7 -7 -7 -7 -8
9 9 8 8 7 6 6 6 5 5 4 3 2 2 1 1 0 -0 -1 -2 -2 -3 -3 -4 -5 -5 -5 -6 -6 -7 -7 -7 -8 -7 -7 -7 -7 -7 -7 -7 -8 -8 -8
8 8 7 7 6 6 5 5 4 4 3 2 2 1 1 0 -0 -1 -2 -3 -3 -4 -5 -5 -6 -6 -7 -7 -7 -8 -8 -8 -8 -8 -8 -8 -7 -7 -8 -8 -8 -9 -9
7 7 6 6 5 5 5 4 3 3 2 2 1 0 -0 -1 -1 -1 -2 -3 -4 -5 -5 -6 -7 -7 -7 -8 -8 -8 -8 -8 -8 -8 -8 -8 -8 -8 -8 -9 -9 -9 -9
6 6 5 5 5 4 4 3 2 2 1 1 0 -0 -1 -1 -2 -2 -4 -4 -5 -6 -6 -7 -7 -8 -8 -8 -8 -8 -8 -8 -8 -8 -8 -8 -8 -9 -9 -9 -9 -9 -9
6 5 5 4 4 3 3 2 2 1 1 0 -0 -1 -1 -2 -2 -3 -5 -5 -6 -6 -7 -7 -8 -8 -9 -8 -9 -9 -8 -8 -8 -8 -8 -9 -9 -9 -9 -10 -10 -10 -10
5 4 4 4 3 3 2 1 1 1 0 -0 -1 -2 -2 -2 -3 -4 -5 -6 -6 -7 -7 -8 -8 -9 -9 -9 -9 -9 -9 -9 -9 -9 -9 -9 -10 -10 -10 -10 -10 -10 -10
4 4 3 3 2 2 1 1 0 -0 -1 -1 -2 -3 -3 -4 -4 -5 -6 -7 -7 -8 -8 -9 -9 -9 -9 -9 -9 -9 -9 -9 -9 -10 -10 -10 -10 -10 -10 -10 -10 -11 -11
3 3 3 2 1 1 0 -0 -1 -1 -1 -2 -3 -3 -4 -5 -5 -7 -8 -8 -8 -8 -8 -9 -9 -9 -9 -9 -9 -9 -9 -10 -10 -10 -10 -10 -10 -10 -11 -11 -11 -11 -11
3 2 2 1 1 0 -0 -1 -1 -2 -2 -3 -3 -4 -5 -6 -7 -8 -8 -9 -9 -8 -9 -9 -9 -10 -9 -9 -9 -10 -10 -10 -10 -10 -10 -9 -10 -10 -11 -11 -11 -12 -12
2 2 1 0 0 -0 -1 -1 -2 -2 -3 -3 -3 -4 -5 -6 -7 -8 -9 -9 -9 -9 -9 -9 -10 -10 -9 -9 -10 -11 -11 -10 -10 -10 -10 -10 -10 -10 -10 -10 -11 -11 -12
1 1 0 -0 -1 -1 -2 -2 -3 -3 -3 -3 -4 -5 -6 -7 -8 -9 -9 -9 -9 -9 -10 -10 -10 -10 -10 -10 -11 -11 -11 -11 -11 -11 -12 -11 -11 -10 -10 -10 -10 -10 -10
1 0 -0 -1 -1 -2 -2 -3 -3 -3 -4 -4 -6 -7 -8 -8 -9 -9 -9 -9 -9 -10 -10 -10 -10 -11 -11 -11 -11 -11 -11 -11 -12 -12 -12 -12 -11 -10 -10 -10 -9 -9 -9
-0 -1 -1 -1 -2 -2 -3 -3 -3 -4 -5 -6 -8 -8 -9 -9 -9 -9 -9 -10 -10 -10 -10 -10 -11 -11 -11 -11 -11 -11 -11 -12 -12 -12 -12 -11 -10 -10 -10 -10 -10 -10 -10
-1 -1 -2 -2 -2 -3 -3 -3 -4 -5 -6 -8 -9 -9 -9 -9 -9 -10 -10 -10 -10 -10 -11 -11 -11 -11 -11 -11 -11 -11 -12 -12 -12 -11 -11 -11 -11 -10 -10 -10 -10 -10 -10
-1 -2 -2 -3 -3 -3 -3 -4 -4 -6 -6 -7 -8 -9 -9 -10 -10 -10 -10 -10 -11 -11 -11 -12 -12 -12 -13 -13 -12 -12 -12 -11 -11 -11 -10 -11 -11 -11 -10 -10 -10 -10 -10
-2 -2 -3 -3 -3 -4 -4 -5 -6 -6 -7 -7 -8 -8 -9 -10 -10 -10 -11 -11 -11 -11 -12 -12 -13 -13 -13 -12 -12 -12 -12 -11 -10 -10 -10 -10 -10 -10 -10 -10 -9 -9 -9
-3 -3 -3 -4 -4 -5 -5 -6 -7 -8 -8 -8 -8 -9 -9 -10 -10 -11 -11 -11 -10 -11 -12 -13 -13 -12 -12 -12 -12 -12 -11 -10 -10 -10 -9 -9 -9 -10 -9 -9 -9 -9 -9
-3 -3 -4 -4 -5 -5 -6 -7 -8 -9 -9 -9 -9 -9 -9 -10 -10 -10 -11 -11 -12 -13 -13 -12 -12 -12 -11 -11 -11 -11 -10 -10 -9 -9 -9 -8 -9 -9 -9 -9 -9 -8 -8
-4 -4 -5 -5 -6 -6 -7 -8 -9 -9 -9 -9 -9 -10 -10 -11 -11 -10 -11 -12 -12 -13 -12 -12 -11 -11 -11 -11 -11 -10 -10 -9 -9 -8 -8 -8 -8 -8 -8 -8 -8 -8 -8
-4 -5 -5 -6 -7 -7 -8 -9 -9 -9 -10 -10 -10 -10 -11 -12 -11 -11 -12 -12 -12 -12 -12 -12 -11 -11 -11 -10 -10 -10 -9 -9 -8 -8 -8 -8 -8 -8 -8 -8 -8 -8 -8
-5 -5 -6 -7 -7 -8 -9 -9 -9 -10 -10 -10 -10 -10 -11 -11 -12 -12 -12 -12 -12 -12 -12 -12 -11 -10 -10 -10 -10 -9 -8 -8 -8 -8 -7 -7 -7 -7 -7 -7 -7 -7 -7
-6 -6 -7 -7 -8 -9 -9 -9 -10 -10 -10 -10 -11 -11 -12 -12 -12 -12 -12 -12 -12 -11 -11 -11 -10 -10 -9 -9 -9 -8 -8 -8 -7 -7 -7 -7 -7 -7 -7 -7 -7 -7 -7
-6 -7 -8 -8 -9 -9 -9 -10 -10 -10 -11 -11 -11 -12 -12 -13 -12 -12 -12 -12 -11 -11 -11 -10 -10 -9 -9 -8 -8 -8 -7 -7 -7 -7 -7 -7 -7 -7 -7 -7 -7 -7 -7
-7 -8 -8 -9 -9 -10 -10 -10 -10 -11 -11 -11 -12 -12 -12 -12 -12 -12 -12 -11 -11 -11 -10 -10 -9 -9 -8 -8 -7 -7 -7 -7 -7 -7 -7 -7 -7 -7 -7 -7 -7 -7 -7
-8 -8 -9 -9 -10 -10 -10 -11 -11 -11 -11 -12 -12 -12 -12 -12 -12 -12 -11 -11 -11 -10 -10 -9 -9 -8 -8 -8 -7 -7 -7 -7 -7 -7 -7 -7 -7 -7 -7 -7 -7 -7 -7
Wind_Speed
10 10 10 8 8 7 6 5 4 3 3 4 4 5 6 6 6 6 7 8 7 7 6 7 8 8 8 8 8 9 9 11 17 20 15 12 11 12 13 9 13 11 15
10 10 9 8 8 7 6 4 4 3 3 4 5 6 7 7 7 8 9 9 8 8 8 8 8 10 10 10 9 10 11 11 15 21 19 15 14 13 13 11 14 15 12
10 9 9 8 7 6 5 4 3 3 4 5 5 6 7 8 8 8 8 8 8 8 8 8 9 10 12 11 12 13 12 13 12 17 20 17 15 12 13 15 15 12 17
10 9 8 7 6 5 4 3 3 3 4 6 6 7 7 8 9 8 8 9 9 8 8 8 9 10 12 13 13 12 13 14 14 16 17 16 15 12 12 15 17 11 13
10 9 7 6 6 5 3 2 3 4 5 6 6 7 8 8 9 11 9 9 9 9 8 8 10 16 21 18 17 15 16 16 16 16 17 17 16 14 15 15 19 17 14
10 8 7 6 5 4 2 3 4 5 5 6 7 7 8 10 17 21 17 10 9 9 9 9 11 15 20 26 29 28 26 21 19 18 17 18 19 17 16 17 19 20 18
9 8 6 6 4 3 2 3 4 5 5 6 7 8 8 11 20 21 22 13 9 9 10 11 14 16 20 14 22 27 24 28 27 20 19 19 20 19 20 21 19 20 20
8 7 6 5 4 2 3 3 4 4 5 5 7 8 8 11 20 21 23 11 9 10 10 11 12 13 16 21 19 18 16 15 18 16 15 17 17 17 17 19 20 19 18
8 7 5 4 3 2 3 4 4 4 6 6 7 8 8 11 18 21 22 10 10 11 10 10 14 13 25 31 22 19 16 14 21 26 26 25 30 30 24 16 15 15 17
7 6 5 4 2 1 3 4 3 4 6 7 7 8 8 9 16 21 22 8 10 11 9 10 18 23 28 30 19 14 16 18 17 17 19 22 19 20 24 16 14 15 16
7 6 5 3 1 2 3 3 5 6 6 7 8 8 8 11 16 20 22 11 11 13 13 11 12 27 29 28 24 14 21 22 15 15 15 15 14 13 13 14 14 13 15
7 5 4 2 2 3 4 5 5 6 7 7 7 8 7 9 13 17 22 21 19 12 13 12 15 27 28 27 20 22 27 22 13 14 14 14 14 14 14 15 17 16 16
6 5 3 3 3 3 4 5 5 5 5 6 6 7 7 6 9 19 22 23 23 15 12 21 24 25 24 18 22 26 21 13 13 13 14 14 12 13 14 14 15 15 16
6 4 3 3 3 4 4 4 5 5 6 7 7 8 8 7 7 8 8 11 17 15 12 15 21 21 19 19 19 16 12 12 14 13 14 14 13 12 13 13 14 14 13
5 3 2 2 3 4 4 4 5 5 7 9 6 6 9 9 13 23 18 13 13 14 15 7 9 11 11 12 13 12 12 13 14 13 14 14 15 14 14 12 12 13 13
3 2 1 2 3 4 4 5 9 10 15 16 16 15 13 17 24 25 25 25 25 24 16 11 12 12 13 14 14 15 14 14 13 14 14 14 14 14 15 14 12 12 13
2 1 2 3 4 4 4 5 7 9 12 15 17 19 19 22 23 24 25 24 22 20 11 11 12 12 13 13 13 13 14 14 13 13 13 14 14 13 13 13 13 12 12
2 2 3 3 4 4 5 5 6 8 9 7 11 17 20 22 23 23 23 19 13 12 10 11 12 12 13 13 13 13 14 14 13 13 14 13 13 13 13 13 12 12 12
2 2 3 3 4 4 5 6 6 7 8 9 8 10 18 20 20 20 18 10 11 11 11 12 12 12 12 13 13 13 13 14 14 14 13 13 13 13 13 12 11 15 12
2 6 6 4 4 5 5 6 6 7 8 9 10 10 11 12 8 11 10 9 10 11 12 13 13 13 13 13 13 13 13 14 14 13 13 13 12 12 13 13 11 10 9
2 4 8 6 5 5 6 6 6 7 8 9 9 13 19 10 8 10 10 10 11 12 12 13 13 13 13 12 12 13 15 14 14 13 13 12 13 13 12 10 10 9 8
3 4 4 5 5 5 6 6 7 8 9 10 10 12 18 10 8 9 11 11 11 11 12 12 12 12 12 12 13 14 14 15 14 13 13 13 13 12 11 9 8 7 6
3 4 5 5 5 9 8 7 7 8 9 9 11 11 11 10 10 11 11 12 12 12 12 12 13 13 13 13 13 13 14 15 15 15 15 14 12 10 8 8 8 7 5
4 4 5 5 5 5 6 7 7 9 10 11 11 11 11 11 12 12 12 12 12 13 13 13 14 17 21 17 14 13 14 15 16 15 15 11 9 8 7 6 6 5 4
4 4 5 5 6 6 7 8 8 9 10 11 11 11 11 12 12 12 11 12 13 13 16 16 14 15 19 24 22 18 22 28 23 12 8 7 8 8 7 6 5 4 3
4 4 5 5 5 6 7 8 9 10 10 10 10 11 11 11 11 11 11 12 12 14 15 15 17 20 23 20 20 24 28 25 19 15 9 6 7 6 6 4 5 4 4
Wind_Direction
121 116 116 115 115 113 112 113 109 84 47 18 354 341 330 319 312 305 298 297 295 293 293 300 296 301 304 304 298 294 290 289 294 300 301 299 287 284 288 272 279 278 286
125 119 117 117 116 114 113 108 94 63 23 355 338 328 320 314 307 301 298 304 295 290 288 291 296 311 307 304 300 295 293 287 289 297 302 303 297 293 293 289 298 297 290
125 120 118 119 119 119 115 99 70 34 357 339 331 323 316 311 306 299 292 291 286 283 283 285 292 302 304 303 299 296 294 295 292 296 299 300 298 299 300 299 295 289 291
127 124 125 129 128 125 114 86 42 7 344 335 330 322 316 312 304 298 297 294 290 284 279 278 285 294 298 300 301 296 301 302 298 296 297 299 300 299 299 304 304 293 292
129 127 131 132 127 118 100 55 13 355 345 336 331 326 323 319 317 321 315 309 303 296 287 282 289 305 309 309 308 309 307 303 303 303 302 303 304 307 306 305 302 302 292
130 131 132 129 124 115 84 31 5 350 341 340 334 325 323 331 330 332 332 320 313 309 306 302 300 305 307 313 312 308 307 307 307 305 305 304 305 305 304 302 303 303 301
129 131 133 132 128 107 54 19 354 339 336 331 325 320 315 320 335 335 333 335 329 318 309 307 311 313 315 302 302 308 307 305 305 305 303 303 303 304 304 304 302 300 298
131 135 137 134 122 83 32 356 331 321 325 317 310 309 311 322 336 335 334 339 318 306 300 298 299 303 308 311 310 310 306 305 304 303 297 299 302 303 301 302 301 299 295
136 141 140 131 116 54 354 330 318 317 315 305 302 305 309 315 329 331 331 314 308 303 297 298 308 307 309 315 318 316 316 311 311 310 310 310 309 309 308 307 305 304 301
142 138 130 120 104 4 326 316 310 307 298 301 302 303 302 302 318 328 328 311 310 310 306 300 313 317 316 322 324 323 319 314 317 319 315 311 306 304 308 307 302 299 298
130 123 114 98 51 336 331 316 309 306 305 306 304 304 301 306 321 328 328 328 318 319 320 318 315 320 324 328 329 322 314 321 325 318 312 310 309 309 308 305 300 295 294
120 113 98 61 12 2 344 319 311 311 313 313 312 310 299 300 317 324 328 328 329 323 319 317 318 325 329 330 328 321 325 330 322 315 314 314 315 312 310 306 301 295 288
112 101 74 35 11 357 335 319 317 319 318 315 311 310 311 303 310 324 327 331 332 328 316 321 326 329 330 328 323 326 330 324 318 318 317 314 310 305 306 306 304 299 294
107 87 55 23 353 341 327 316 317 317 313 309 311 317 315 312 305 308 316 323 329 326 319 324 329 328 328 326 326 325 323 318 321 317 314 311 310 309 310 311 311 313 311
100 76 37 359 330 321 321 317 322 299 305 321 315 310 321 321 322 332 335 330 332 327 333 328 326 328 328 326 325 324 324 324 322 318 315 314 314 314 313 313 310 312 312
102 67 351 319 313 315 319 320 328 329 327 328 329 329 324 323 327 333 333 335 337 337 338 330 327 326 324 324 323 323 323 322 320 317 315 313 313 314 314 315 315 316 317
106 13 314 316 316 317 315 314 317 321 322 325 327 329 328 328 331 332 335 338 339 339 336 326 324 322 320 319 319 318 317 316 315 313 312 312 312 312 313 315 318 321 321
76 357 342 317 313 309 306 304 304 310 315 312 320 327 330 331 331 335 339 341 334 335 329 324 321 319 317 316 316 315 314 314 314 313 311 310 311 312 313 315 317 320 324
41 344 328 318 312 304 301 301 301 305 311 315 317 324 331 330 332 337 342 336 327 327 326 322 318 315 314 313 312 311 311 310 309 310 309 309 310 312 311 313 315 321 327
18 353 349 333 318 310 306 306 309 312 316 318 321 325 325 326 332 334 334 327 327 324 322 318 315 312 312 311 310 310 310 309 309 308 307 308 308 309 309 310 314 319 322
1 339 343 331 310 306 305 308 315 317 316 318 317 321 329 332 327 323 326 327 326 322 319 316 312 310 309 308 308 308 307 305 305 304 304 305 307 308 306 307 312 315 318
347 325 316 310 310 312 316 320 320 319 318 318 320 322 328 329 321 323 325 324 321 317 314 312 309 306 306 306 307 307 304 302 302 302 303 303 303 302 304 309 316 319 322
338 325 321 318 315 326 330 322 321 320 319 320 321 322 323 324 325 324 322 322 319 315 314 312 308 306 306 306 304 300 297 296 296 295 295 296 298 303 310 314 316 321 328
337 328 322 320 320 321 321 320 321 324 324 321 320 320 321 323 322 320 320 318 316 313 311 310 307 304 305 309 308 303 296 294 293 291 291 297 308 312 314 315 317 326 340
344 334 329 324 326 325 323 321 321 321 320 319 318 320 321 319 317 317 317 315 312 311 310 310 307 308 309 310 308 305 304 308 314 322 323 321 316 316 318 322 330 344 12
348 339 331 325 320 318 319 320 319 317 316 317 318 318 316 315 315 315 314 312 313 313 310 310 308 310 310 310 307 310 315 323 338 347 345 324 324 327 335 340 353 16 45
Height
1469 1472 1475 1477 1479 1480 1480 1480 1480 1478 1477 1475 1472 1470 1467 1463 1459 1454 1450 1445 1441 1436 1432 1427 1422 1417 1412 1407 1402 1398 1394 1389 1378 1365 1361 1357 1353 1349 1344 1341 1337 1332 1326
1468 1471 1473 1475 1477 1478 1478 1478 1477 1476 1474 1471 1469 1466 1462 1458 1454 1449 1444 1440 1435 1430 1426 1421 1416 1411 1406 1401 1396 1390 1386 1382 1375 1363 1354 1349 1344 1339 1334 1329 1325 1321 1315
1467 1469 1472 1474 1475 1476 1476 1475 1474 1473 1471 1468 1465 1462 1458 1453 1449 1444 1439 1434 1430 1425 1421 1416 1411 1405 1399 1394 1389 1384 1379 1374 1369 1360 1350 1343 1336 1331 1324 1318 1313 1307 1302
1465 1468 1470 1472 1473 1474 1473 1473 1471 1470 1467 1465 1461 1458 1453 1448 1443 1438 1433 1428 1424 1420 1416 1411 1406 1400 1394 1388 1383 1378 1373 1367 1360 1352 1343 1336 1329 1323 1317 1308 1299 1294 1289
1464 1467 1469 1470 1471 1471 1471 1470 1468 1466 1464 1461 1457 1453 1448 1443 1438 1433 1428 1423 1419 1414 1410 1405 1400 1395 1390 1385 1379 1373 1366 1359 1352 1345 1336 1329 1322 1315 1309 1301 1292 1283 1277
1463 1465 1467 1469 1469 1469 1468 1467 1465 1463 1460 1457 1452 1448 1443 1438 1433 1428 1423 1418 1413 1408 1403 1398 1394 1388 1383 1378 1373 1366 1361 1354 1345 1338 1330 1322 1314 1308 1301 1294 1285 1276 1265
1461 1464 1465 1466 1467 1466 1465 1464 1462 1459 1456 1452 1448 1443 1438 1433 1428 1423 1418 1413 1408 1403 1398 1392 1387 1382 1377 1369 1362 1357 1352 1347 1341 1334 1324 1316 1308 1301 1294 1286 1279 1271 1261
1460 1462 1464 1464 1464 1463 1462 1461 1458 1455 1452 1448 1443 1438 1433 1428 1423 1418 1413 1407 1402 1397 1393 1387 1381 1374 1369 1363 1356 1349 1342 1336 1331 1325 1318 1309 1302 1295 1289 1281 1272 1262 1253
1458 1460 1462 1462 1462 1461 1459 1457 1455 1451 1448 1444 1439 1434 1429 1424 1418 1413 1408 1401 1396 1391 1387 1382 1376 1370 1363 1357 1350 1341 1334 1327 1322 1316 1309 1302 1295 1287 1281 1273 1265 1257 1246
1457 1459 1459 1459 1459 1458 1456 1454 1451 1447 1443 1439 1435 1430 1424 1419 1414 1409 1404 1398 1391 1384 1379 1375 1370 1364 1357 1351 1344 1335 1327 1319 1313 1305 1299 1292 1285 1278 1273 1267 1260 1252 1242
1456 1457 1457 1457 1456 1455 1453 1450 1447 1443 1439 1434 1430 1425 1420 1415 1409 1405 1400 1395 1389 1381 1375 1368 1362 1357 1351 1345 1338 1330 1323 1316 1307 1299 1291 1284 1278 1272 1266 1260 1254 1247 1239
1454 1455 1455 1455 1454 1452 1450 1446 1443 1438 1433 1428 1423 1419 1415 1410 1406 1400 1397 1392 1386 1379 1371 1364 1357 1351 1345 1338 1331 1324 1319 1311 1302 1294 1287 1280 1273 1266 1259 1252 1246 1240 1233
1452 1453 1453 1452 1451 1449 1446 1442 1438 1433 1428 1423 1418 1413 1409 1405 1401 1396 1392 1387 1381 1374 1367 1360 1353 1346 1338 1331 1325 1320 1313 1305 1298 1292 1285 1277 1270 1262 1254 1247 1239 1233 1225
1450 1451 1451 1450 1448 1445 1442 1438 1433 1429 1424 1419 1414 1409 1404 1400 1395 1391 1386 1380 1374 1368 1360 1353 1347 1340 1333 1327 1321 1314 1308 1302 1297 1290 1282 1274 1266 1258 1251 1244 1236 1228 1219
1449 1449 1448 1447 1444 1441 1438 1434 1429 1425 1421 1417 1412 1407 1401 1395 1391 1388 1382 1375 1369 1362 1355 1348 1341 1334 1328 1322 1316 1310 1304 1298 1292 1286 1278 1271 1263 1256 1248 1241 1234 1227 1220
1447 1447 1445 1443 1440 1437 1434 1430 1426 1423 1418 1414 1409 1404 1398 1393 1387 1382 1377 1371 1364 1358 1351 1344 1337 1332 1326 1320 1313 1307 1301 1295 1289 1282 1276 1269 1261 1254 1246 1239 1233 1227 1219
1445 1444 1442 1440 1437 1433 1429 1425 1421 1417 1414 1410 1405 1400 1394 1389 1383 1377 1371 1365 1359 1353 1347 1341 1335 1329 1323 1318 1311 1305 1298 1292 1286 1280 1273 1266 1260 1252 1246 1239 1232 1226 1220
1443 1441 1439 1436 1433 1429 1425 1421 1417 1411 1407 1403 1400 1395 1390 1384 1378 1373 1367 1360 1353 1348 1344 1338 1332 1327 1321 1315 1309 1302 1295 1289 1283 1277 1271 1264 1258 1251 1245 1239 1233 1227 1221
1440 1438 1436 1433 1430 1426 1422 1418 1413 1408 1403 1398 1393 1389 1384 1379 1374 1369 1363 1357 1351 1345 1340 1335 1329 1324 1318 1312 1306 1299 1293 1287 1281 1275 1268 1262 1256 1250 1244 1239 1234 1228 1223
1438 1435 1433 1429 1426 1422 1418 1414 1409 1404 1400 1394 1389 1384 1378 1373 1368 1363 1358 1353 1348 1343 1337 1332 1326 1321 1315 1309 1303 1296 1290 1284 1278 1272 1266 1260 1255 1249 1244 1239 1234 1229 1224
1435 1432 1429 1426 1422 1418 1414 1410 1406 1401 1396 1391 1386 1381 1377 1371 1365 1360 1355 1350 1345 1340 1334 1329 1323 1318 1312 1306 1300 1293 1287 1281 1276 1270 1264 1259 1253 1248 1243 1239 1235 1230 1226
1432 1429 1426 1422 1418 1414 1410 1406 1402 1397 1392 1387 1381 1377 1372 1367 1362 1357 1352 1347 1342 1337 1332 1326 1320 1315 1309 1303 1297 1290 1284 1279 1273 1267 1262 1257 1252 1247 1243 1239 1235 1231 1228
1428 1425 1422 1419 1415 1411 1407 1403 1398 1393 1388 1383 1377 1372 1367 1363 1358 1354 1349 1344 1339 1334 1329 1324 1318 1312 1306 1300 1294 1288 1282 1276 1271 1265 1259 1254 1251 1247 1243 1239 1236 1232 1229
1425 1422 1419 1415 1411 1407 1403 1398 1394 1389 1384 1378 1373 1369 1364 1360 1355 1350 1345 1341 1336 1331 1326 1321 1315 1309 1303 1297 1292 1286 1281 1275 1268 1263 1259 1255 1251 1247 1243 1240 1237 1234 1231
1421 1418 1415 1411 1407 1403 1399 1394 1390 1385 1380 1375 1370 1365 1361 1356 1351 1347 1342 1338 1333 1328 1323 1318 1313 1307 1301 1295 1290 1284 1278 1273 1268 1264 1259 1255 1251 1247 1244 1241 1238 1236 1234
1418 1415 1411 1408 1404 1400 1395 1390 1386 1381 1376 1371 1366 1362 1357 1352 1348 1344 1339 1335 1330 1325 1321 1316 1310 1305 1299 1293 1288 1282 1276 1272 1267 1263 1258 1254 1251 1248 1245 1242 1240 1238 1236